Location: Larkspur
(54.4391°N, 113.7691°W)
Time: 14:11:39
(UTC+00:00)

Oscar 19 - Pass Details

Date: 01 December 2023
Orbit: 771 x 789 km, 98.9° (Epoch: 01 March)

Event Time Altitude Azimuth Distance (km) Brightness Sun altitude
Rises 14:08:32 0° 11° (N) 3,269 13.7 -11.4°
Reaches altitude 10° 14:11:14 10° 358° (N) 2,340 12.9 -11.1°
Maximum altitude 14:15:17 24° 306° (NW) 1,574 11.6 -10.5°
Drops below altitude 10° 14:19:20 10° 254° (WSW) 2,338 12.7 -10.0°
Sets 14:22:01 0° 241° (WSW) 3,265 13.5 -9.6°
